Regional Weather Roundup
Issued by NWS

Home | Current Version | Previous Version | Graphics & Text | Print | Product List | Glossary On
Versions: 1 2 3 4 5 6 7 8 9 10 11 12 13 14 15 16 17 18 19 20 21 22 23 24 25 26 27 28 29 30 31 32 33 34 35 36 37 38 39 40 41 42 43 44 45 46 47 48 49 50
000
ASUS45 KCYS 250510
RWRWY

WYOMING REGIONAL WEATHER ROUNDUP
NATIONAL WEATHER SERVICE CHEYENNE WY
1000 PM MST MON NOV 24 2014

NOTE:  "FAIR" INDICATES FEW OR NO CLOUDS BELOW 12,000 FEET
WITH NO SIGNIFICANT WEATHER AND/OR OBSTRUCTIONS TO VISIBILITY.

WYZ001-250600-
YELLOWSTONE NATIONAL PARK

CITY           SKY/WX    TMP DP  RH WIND       PRES   REMARKS
LK YELLOWSTONE   N/A     20  14  77 VRB6      30.19F WCI  12
W YELLOWSTONE  NOT AVBL

$$
WYZ002>013-054>058-071-098>099-250600-
NORTHERN WYOMING

CITY           SKY/WX    TMP DP  RH WIND       PRES   REMARKS
JACKSON        CLOUDY    27  19  74 S12       30.26F WCI  16
CODY           MOCLDY    36  14  41 W21G39    30.04F WCI  24
GREYBULL       MOCLDY    22  17  81 SE8       30.12F WCI  12
WORLAND        PTCLDY    20  13  74 SW6       30.12F WCI  12
SHERIDAN       PTCLDY    25  14  63 W5        30.04F WCI  19
BUFFALO        PTCLDY    27  12  53 S10       30.05F WCI  17
GILLETTE       MOCLDY    26  22  84 SW12      30.07S WCI  16
HULETT           N/A     30  25  80 MISG        N/A
NEWCASTLE      FAIR      23  21  93 NW3       30.10F

$$
WYZ014>020-022>026-101>103-250600-
CENTRAL WYOMING

CITY           SKY/WX    TMP DP  RH WIND       PRES   REMARKS
BIG PINEY      PTCLDY    25   5  42 S6        30.28S WCI  18
PINEDALE       PTCLDY    14   9  79 W5        30.27S WCI   6
DUBOIS         FAIR      21   9  58 NW16G23   30.13F WCI   7
LANDER         MOCLDY    24   3  40 SW3       30.15R
RIVERTON       MOCLDY    30  11  45 W25G38    30.14R WCI  16
CASPER         CLEAR     19  12  74 SW7       30.13F WCI  10
DOUGLAS        CLEAR    N/A N/A N/A NW8       30.14F

$$
WYZ021-027>030-104>119-250600-
SOUTHERN WYOMING

CITY           SKY/WX    TMP DP  RH WIND       PRES   REMARKS
EVANSTON       PTCLDY    17  13  84 SW12      30.35F WCI   4
FORT BRIDGER   FAIR      21  15  77 W15G22    30.37R WCI   8
ROCK SPRINGS   PTCLDY    21  12  68 W26G36    30.29R WCI   4
DIXON          FAIR       3  -1  82 CALM      30.33R
RAWLINS        PTCLDY    19   9  65 W21G30    30.20R WCI   3
SARATOGA       FAIR      19  10  68 W14       30.22R WCI   6
LARAMIE        PTCLDY    11   5  77 W7        30.11F WCI   0
CHEYENNE       CLEAR     16   9  74 W8        30.14F WCI   5
TORRINGTON     CLEAR     25  18  74 NW6       30.15F WCI  18
PINE BLUFFS    FAIR      19  16  86 W9        30.17R WCI   9

$$



USA.gov is the U.S. government's official web portal to all federal, state and local government web resources and services.